Wind_Speed
27 26 26 26 27 25 26 25 25 25 22 21 22 21 20 18 15 17 15 15 15 14 11 8 5 6 3 6 6 8 14 14 15 19 24 15 15 19 16 19 22 21 23 26 22
28 28 27 27 27 27 26 26 27 27 26 26 25 24 23 23 18 16 15 14 11 10 11 9 9 10 10 12 11 12 17 13 17 19 14 14 18 19 14 18 18 20 21 23 23
27 27 28 28 28 28 27 26 27 28 28 28 27 27 25 25 22 21 17 13 10 8 10 9 9 14 11 15 11 12 18 19 24 25 22 25 28 21 17 19 18 14 20 23 24
28 27 27 28 28 28 28 28 27 28 29 29 29 28 25 24 20 13 12 12 13 13 12 11 11 13 11 12 11 16 18 18 24 20 22 24 23 21 18 21 23 26 25 26 20
27 27 27 27 29 28 28 27 27 28 29 30 31 29 26 26 20 19 23 19 20 19 16 14 14 13 13 11 11 18 19 21 21 18 17 21 25 21 21 19 21 27 31 29 19
31 28 29 28 28 27 27 27 27 27 28 30 32 30 30 27 18 15 22 20 18 21 17 17 11 12 15 13 14 18 22 19 20 19 22 23 24 21 25 25 24 32 22 9 11
32 34 33 32 30 29 27 26 24 26 28 29 31 32 31 22 22 21 21 19 18 19 18 14 11 17 14 16 16 21 24 23 25 22 16 20 25 17 17 17 25 15 4 1 10
31 32 34 34 32 32 30 28 25 26 26 29 31 33 33 25 26 22 24 21 19 21 17 15 15 16 18 19 18 23 20 23 9 13 19 19 16 13 17 11 18 15 8 5 8
30 31 32 32 34 34 32 30 28 29 28 30 31 32 30 27 21 21 24 22 20 19 18 19 23 18 17 20 18 16 22 14 18 15 10 10 12 12 14 15 10 9 8 7 8
28 29 30 30 30 32 32 31 29 32 33 33 35 30 19 19 23 17 15 23 25 21 21 26 27 23 20 22 20 17 16 17 22 24 11 13 13 15 10 6 12 10 8 8 7
28 28 29 27 25 27 27 25 28 35 40 38 33 27 19 19 22 19 18 20 23 26 28 26 30 35 25 22 17 13 18 24 23 13 14 11 10 7 11 8 13 10 9 10 9
28 28 28 27 22 22 21 18 27 33 42 41 41 43 30 26 32 23 22 21 25 31 27 24 37 32 21 21 21 20 23 25 26 15 13 13 14 10 12 11 14 8 10 7 8
29 27 27 24 19 21 17 11 21 30 41 46 41 46 34 34 38 28 28 23 25 30 32 34 19 24 21 21 21 21 24 25 21 14 14 10 15 14 13 14 14 10 6 3 6
30 28 29 24 20 16 15 9 16 24 24 41 38 40 29 35 48 29 37 29 32 33 30 34 36 18 15 23 22 24 11 19 12 15 8 11 9 19 19 16 19 15 12 2 4
30 29 28 25 16 14 14 8 11 10 6 10 9 10 9 19 28 18 34 39 39 35 34 36 34 31 30 24 18 25 19 21 15 13 16 18 10 24 17 18 25 23 17 8 2
32 29 30 25 14 20 12 8 11 7 12 5 8 10 15 12 19 16 25 43 40 36 36 29 32 17 27 24 21 17 18 18 17 10 7 22 13 20 17 20 23 22 21 16 10
31 32 32 29 16 22 14 15 14 13 11 8 7 9 15 15 16 21 18 45 38 34 41 34 35 31 27 26 24 23 22 5 5 3 6 3 6 22 15 18 20 21 22 18 15
30 31 33 32 23 24 20 24 19 20 31 11 6 6 5 7 18 16 22 36 50 30 16 29 20 38 31 37 29 26 26 13 5 4 4 7 8 6 16 16 22 21 19 20 17
29 31 33 27 28 28 27 31 27 30 11 12 29 22 20 7 5 14 23 32 43 48 23 19 28 26 39 30 26 29 28 27 20 5 2 5 12 8 7 11 12 12 12 16 22
31 32 33 23 24 27 33 48 43 36 25 20 11 9 11 15 9 7 10 11 34 39 46 28 8 24 21 31 32 26 26 19 13 7 4 7 10 11 12 14 11 10 9 11 12
24 29 33 22 21 28 46 50 39 45 28 24 30 32 30 22 12 12 12 17 10 30 35 41 32 14 22 32 27 32 34 20 23 21 6 2 7 9 13 22 14 10 10 11 11
29 35 38 26 36 44 47 54 41 21 17 37 43 38 34 27 24 20 28 26 9 11 30 44 29 39 39 17 22 33 37 35 22 10 13 17 23 7 9 8 10 10 9 13 15
37 41 38 28 43 53 50 45 46 46 42 27 23 27 30 11 18 28 28 27 23 19 15 33 41 24 34 43 35 26 29 41 39 34 29 12 7 19 16 7 14 13 16 16 14
41 42 41 34 46 47 51 40 36 37 41 45 44 41 35 28 20 23 33 34 21 23 18 25 41 47 28 28 23 16 22 36 42 36 30 32 27 19 21 23 15 19 20 20 17
45 49 46 44 52 46 47 44 43 39 29 29 32 40 39 35 23 30 34 38 27 22 16 27 40 44 44 38 31 21 17 33 45 40 37 35 34 26 23 21 16 17 25 20 17
52 55 49 55 43 46 50 46 45 32 31 37 42 30 23 31 35 26 14 22 29 19 14 14 21 37 35 40 40 23 28 28 40 37 34 33 31 26 26 21 24 21 16 20 21
55 55 51 45 52 48 50 47 45 36 40 36 22 23 25 24 25 30 24 24 29 26 19 18 11 17 25 31 31 25 40 32 31 29 33 33 28 29 23 21 22 22 19 17 20
Wind_Direction
277 276 277 278 279 278 279 279 279 280 279 277 278 278 279 279 280 286 290 293 292 281 266 262 246 227 212 142 194 247 271 286 306 326 332 330 340 328 340 333 334 329 328 342 341
273 275 275 275 275 277 278 278 278 279 279 278 276 277 281 278 278 278 279 291 279 257 251 245 242 235 197 176 217 251 278 281 306 306 323 320 328 334 328 328 324 322 334 337 335
273 272 274 274 274 274 275 275 277 277 278 278 276 277 281 281 282 279 277 264 243 247 254 248 244 249 227 218 204 255 273 301 300 298 293 308 314 322 301 311 321 316 326 326 325
274 273 273 274 274 274 275 275 276 277 277 278 277 276 277 277 278 285 276 253 258 263 262 252 248 248 245 222 208 274 286 292 310 286 287 302 318 307 308 304 305 305 293 315 309
278 275 273 272 272 272 272 274 276 277 277 276 277 276 274 271 277 265 269 270 268 264 254 245 244 245 240 220 274 287 291 294 305 304 296 302 303 297 304 303 301 308 307 315 305
262 272 277 272 270 270 270 271 272 275 277 277 276 277 275 272 278 263 260 263 266 263 250 246 243 244 235 226 263 268 281 285 289 280 279 291 300 290 292 298 308 312 294 282 310
260 260 267 266 266 267 267 268 268 271 272 275 275 275 271 275 271 261 258 255 257 254 252 244 224 217 236 248 261 266 280 273 259 274 288 308 294 290 281 316 313 313 304 51 335
265 262 263 269 265 264 263 264 265 266 269 272 274 274 272 270 270 269 262 252 244 252 247 219 198 219 238 246 263 276 270 278 339 309 290 289 307 299 317 295 322 332 19 335 340
267 267 266 266 268 266 266 264 264 264 268 269 272 274 281 273 273 263 251 248 240 239 237 215 209 219 232 256 265 268 263 263 296 324 301 259 291 314 302 290 333 351 5 353 334
270 270 269 270 269 268 266 265 263 265 261 263 267 273 278 261 261 247 245 230 224 227 226 208 211 221 233 240 246 249 259 289 294 313 313 284 283 298 270 288 321 334 328 337 341
271 272 274 276 274 274 274 272 263 257 258 256 254 256 252 261 257 250 249 229 220 219 218 216 217 225 227 233 246 259 277 292 298 315 295 297 283 274 242 286 293 296 306 314 343
276 278 280 282 288 286 284 280 271 265 263 257 258 261 255 250 252 243 237 225 217 219 213 213 229 234 237 237 241 244 264 281 295 292 289 295 280 299 277 278 283 308 322 348 7
271 274 278 282 287 293 298 287 268 269 274 272 263 263 262 254 250 235 235 233 231 223 217 218 241 231 229 228 236 239 257 278 280 304 311 295 288 287 299 231 250 277 304 343 18
269 271 275 280 286 293 293 270 255 267 287 280 283 277 264 247 250 234 221 230 228 226 223 228 233 226 220 228 229 255 250 266 308 285 305 311 295 292 295 237 244 251 272 321 317
264 268 272 275 285 281 280 269 242 269 301 283 273 256 231 225 247 244 223 217 224 227 216 220 233 228 223 216 223 251 270 267 287 297 303 282 279 276 281 265 240 244 251 271 265
257 257 260 264 267 259 263 228 188 207 246 241 246 239 231 226 232 218 208 210 224 226 231 239 234 232 230 224 237 253 249 258 273 288 279 284 243 279 272 242 243 246 252 255 259
254 250 253 254 252 254 235 206 198 217 233 255 203 187 246 261 227 212 216 204 206 210 223 225 231 228 226 240 237 247 241 248 295 275 228 260 241 257 281 230 238 238 241 245 241
254 252 247 249 244 248 228 206 220 241 229 170 195 291 287 274 260 230 231 212 211 209 221 213 237 226 210 227 233 239 231 207 200 221 252 252 243 245 299 239 239 232 259 249 239
252 249 247 246 242 239 221 208 224 239 247 281 263 282 286 241 272 227 236 232 220 214 214 215 228 227 220 210 224 233 222 224 228 221 246 249 262 293 213 165 183 200 209 232 245
255 253 248 242 238 225 218 229 234 234 241 237 284 259 268 274 316 278 251 239 240 223 219 228 264 240 226 219 224 234 224 207 205 178 228 267 266 234 184 184 227 241 245 220 226
249 253 248 230 219 222 224 234 242 241 237 249 257 256 261 286 304 305 272 236 233 239 223 234 236 239 215 223 223 220 220 212 228 214 175 259 257 252 231 218 210 212 243 252 244
233 241 253 233 210 223 238 234 239 234 225 242 244 250 260 264 262 275 277 278 249 263 246 231 234 237 238 214 220 230 223 224 216 199 225 235 245 247 184 182 208 237 238 245 239
226 232 239 228 223 223 233 242 241 240 233 243 247 254 251 284 260 259 267 269 279 268 260 235 222 225 238 248 232 229 227 225 229 230 228 210 239 225 194 208 248 245 236 228 245
225 229 225 226 235 231 226 236 238 247 249 250 253 251 250 248 245 253 264 280 265 245 266 236 220 218 221 232 211 227 251 231 228 218 221 234 244 237 230 244 248 243 246 248 251
225 225 225 217 227 233 235 233 242 237 242 251 254 247 248 256 258 246 254 270 291 260 239 227 218 221 229 231 215 254 272 231 221 228 221 235 242 249 248 236 241 256 242 243 258
224 219 223 228 224 232 232 232 235 241 245 251 253 253 260 260 256 249 282 285 289 271 238 205 235 229 230 231 231 251 272 248 224 221 236 244 247 252 251 247 240 254 260 249 252
220 225 228 232 230 231 230 236 235 243 249 252 259 262 258 257 259 264 247 267 282 298 300 246 253 217 234 240 230 252 248 237 233 233 244 240 241 252 234 238 237 244 253 245 235
Height
3142 3141 3141 3142 3143 3142 3142 3142 3141 3141 3139 3138 3139 3138 3137 3137 3139 3139 3137 3137 3135 3134 3133 3134 3134 3133 3133 3134 3133 3133 3132 3130 3129 3128 3127 3127 3124 3121 3118 3115 3112 3110 3106 3104 3101
3136 3137 3137 3137 3137 3137 3137 3137 3137 3136 3135 3134 3133 3134 3134 3133 3135 3135 3135 3132 3132 3131 3131 3132 3131 3131 3131 3131 3131 3131 3130 3127 3128 3127 3127 3125 3123 3121 3117 3113 3111 3109 3105 3103 3100
3130 3131 3131 3132 3132 3131 3131 3132 3132 3131 3130 3129 3128 3129 3130 3130 3130 3131 3131 3130 3130 3129 3128 3129 3129 3129 3130 3129 3129 3128 3127 3126 3125 3125 3125 3123 3122 3119 3116 3112 3109 3107 3103 3099 3098
3125 3124 3125 3126 3126 3126 3126 3126 3126 3126 3125 3124 3123 3124 3124 3126 3127 3127 3127 3127 3127 3126 3126 3125 3126 3126 3127 3127 3128 3125 3125 3124 3122 3122 3122 3120 3118 3115 3113 3110 3105 3103 3101 3099 3096
3118 3118 3118 3118 3119 3119 3119 3120 3121 3120 3120 3119 3117 3117 3119 3119 3123 3123 3122 3122 3123 3122 3122 3122 3122 3123 3123 3124 3124 3121 3121 3119 3119 3119 3118 3117 3114 3112 3110 3108 3103 3100 3100 3095 3092
3112 3111 3112 3112 3112 3112 3113 3114 3114 3114 3113 3112 3111 3112 3113 3113 3115 3117 3116 3117 3118 3118 3118 3119 3121 3121 3120 3120 3120 3118 3116 3116 3115 3115 3115 3115 3112 3109 3106 3103 3101 3099 3091 3089 3089
3104 3104 3104 3105 3106 3106 3106 3108 3108 3107 3106 3105 3104 3104 3106 3110 3108 3111 3111 3113 3114 3113 3114 3116 3118 3117 3118 3117 3117 3115 3112 3112 3111 3112 3112 3112 3109 3106 3104 3102 3098 3097 3090 3089 3087
3097 3097 3097 3098 3099 3099 3099 3101 3102 3100 3100 3098 3097 3095 3097 3103 3102 3104 3104 3106 3108 3109 3110 3112 3114 3113 3113 3113 3113 3113 3112 3109 3108 3108 3108 3110 3106 3104 3101 3099 3096 3091 3090 3088 3088
3089 3090 3089 3090 3091 3091 3092 3094 3096 3093 3094 3091 3090 3089 3092 3093 3094 3095 3097 3099 3101 3103 3106 3108 3109 3109 3110 3110 3110 3111 3107 3106 3105 3105 3104 3105 3104 3102 3101 3100 3097 3094 3090 3088 3086
3081 3082 3082 3084 3084 3084 3084 3087 3088 3087 3085 3084 3083 3087 3088 3088 3088 3091 3091 3092 3095 3098 3101 3103 3103 3102 3104 3108 3104 3106 3107 3105 3103 3103 3102 3101 3101 3099 3099 3097 3094 3094 3091 3088 3087
3075 3075 3076 3077 3079 3077 3079 3080 3083 3080 3075 3077 3075 3075 3081 3083 3082 3085 3086 3087 3090 3092 3092 3097 3098 3092 3098 3102 3104 3104 3105 3103 3100 3099 3100 3098 3099 3098 3096 3096 3094 3095 3093 3089 3087
3068 3068 3068 3070 3072 3072 3073 3075 3073 3069 3061 3066 3067 3064 3074 3078 3072 3079 3080 3083 3084 3084 3089 3093 3086 3090 3097 3100 3101 3102 3102 3099 3096 3098 3097 3095 3095 3095 3094 3093 3092 3092 3091 3090 3089
3062 3063 3062 3066 3068 3068 3069 3073 3068 3063 3056 3051 3059 3055 3065 3067 3064 3072 3073 3078 3078 3079 3081 3082 3085 3087 3092 3094 3097 3098 3099 3096 3097 3094 3094 3092 3091 3091 3091 3091 3091 3091 3092 3091 3091
3055 3056 3056 3059 3066 3064 3065 3067 3064 3062 3059 3042 3046 3040 3050 3052 3046 3064 3064 3071 3071 3073 3077 3078 3082 3085 3087 3089 3094 3095 3095 3096 3094 3093 3092 3091 3087 3087 3086 3086 3087 3089 3090 3091 3091
3048 3049 3049 3053 3059 3061 3062 3063 3062 3063 3065 3045 3041 3040 3041 3044 3046 3053 3058 3060 3060 3067 3069 3067 3072 3078 3082 3084 3089 3090 3092 3094 3093 3090 3088 3088 3089 3082 3084 3081 3082 3083 3087 3089 3090
3040 3043 3044 3049 3056 3054 3059 3061 3063 3068 3051 3040 3038 3040 3040 3042 3044 3047 3047 3054 3058 3063 3064 3066 3072 3076 3079 3084 3085 3088 3090 3090 3089 3088 3086 3083 3085 3077 3078 3076 3076 3080 3082 3086 3087
3032 3035 3037 3042 3053 3049 3055 3058 3063 3054 3038 3037 3040 3038 3041 3041 3043 3045 3046 3044 3049 3056 3055 3063 3061 3069 3075 3078 3080 3083 3086 3086 3088 3087 3084 3081 3080 3073 3073 3074 3075 3075 3077 3080 3085
3024 3027 3030 3035 3044 3044 3050 3055 3049 3029 3032 3032 3035 3035 3037 3040 3040 3042 3043 3042 3045 3050 3051 3055 3057 3059 3062 3066 3073 3075 3080 3081 3087 3086 3080 3078 3073 3070 3067 3066 3072 3074 3075 3076 3080
3016 3017 3021 3031 3035 3036 3043 3040 3025 3024 3031 3032 3032 3034 3035 3036 3035 3035 3038 3038 3040 3044 3048 3050 3047 3051 3056 3061 3068 3070 3070 3077 3078 3079 3078 3073 3070 3069 3067 3066 3069 3073 3074 3074 3075
3007 3010 3013 3023 3023 3027 3031 3019 3017 3023 3028 3031 3033 3034 3033 3032 3034 3032 3032 3033 3037 3038 3045 3046 3045 3046 3053 3058 3060 3062 3068 3070 3071 3076 3076 3068 3066 3066 3067 3067 3068 3068 3070 3072 3074
3001 3001 3003 3013 3017 3019 3009 3006 3013 3019 3024 3028 3029 3030 3029 3031 3033 3032 3028 3027 3031 3037 3041 3044 3045 3046 3047 3046 3052 3057 3058 3062 3065 3066 3069 3069 3062 3063 3064 3065 3066 3067 3067 3069 3071
2994 2992 2993 3003 3008 3002 2995 2998 3006 3013 3018 3019 3022 3025 3024 3029 3029 3030 3026 3028 3026 3027 3030 3033 3039 3041 3038 3042 3044 3048 3049 3053 3055 3060 3060 3061 3059 3061 3061 3062 3065 3066 3066 3066 3067
2984 2984 2986 2992 2990 2987 2990 2992 3000 3006 3012 3014 3015 3018 3021 3023 3024 3022 3021 3020 3021 3021 3020 3027 3028 3031 3035 3036 3033 3035 3041 3045 3051 3055 3053 3058 3056 3058 3059 3060 3061 3062 3063 3065 3066
2975 2975 2979 2978 2977 2982 2987 2989 2993 2998 3001 3006 3006 3010 3011 3014 3017 3013 3014 3012 3015 3015 3016 3016 3018 3018 3017 3020 3028 3031 3034 3039 3043 3044 3048 3047 3052 3054 3055 3056 3057 3059 3059 3060 3062
2960 2958 2962 2963 2964 2973 2981 2983 2987 2991 2996 2999 2996 2999 3005 3007 3011 3009 3011 3009 3009 3010 3009 3012 3008 3011 3015 3021 3023 3024 3026 3031 3033 3037 3039 3044 3044 3048 3050 3052 3053 3054 3056 3057 3058
2945 2947 2952 2956 2963 2967 2969 2970 2978 2984 2989 2986 2990 2998 3001 2999 3006 3009 3010 3010 3010 3003 3005 3005 3003 3007 3010 3013 3018 3025 3024 3027 3029 3031 3034 3037 3038 3043 3045 3046 3047 3048 3050 3051 3053
2935 2940 2946 2946 2952 2956 2956 2965 2971 2979 2980 2982 2990 2994 2993 2996 3001 3002 3005 3004 3004 2998 3000 3001 3003 3002 3001 3009 3015 3019 3013 3019 3022 3024 3028 3029 3033 3036 3037 3039 3041 3042 3043 3045 3047